When you browse on this site, cookies collect data to enhance your experience and personalize the content and advertising you see.
Visit our Privacy Policy to learn more. By continuing to use the site, you agree to this use of cookies and data.
  • In Spain
  • List of Countries
  • For 7 days
  • Water Temperature
  • Satellite Maps
  • Weather Map
  • Weather Widgets
  • user-avatar
    Login

    Hourly Weather Karaganda

    Today, 25 June, Tuesday

    Time Temperature Precipitation Wind Pressure Humidity
    00:00 +16°C° 0 mm 1 mps 709 mmHg 90%
    01:00 +15°C° 0 mm 1 mps 709 mmHg 90%
    02:00 +15°C° 0 mm 1 mps 709 mmHg 90%
    03:00 +16°C° 0 mm 1 mps 710 mmHg 91%
    04:00 +16°C° 0 mm 1 mps 710 mmHg 92%
    05:00 +16°C° 0 mm 1 mps 710 mmHg 99%
    06:00 +18°C° 0 mm 2 mps 710 mmHg 91%
    07:00 +20°C° 0 mm 2 mps 711 mmHg 83%
    08:00 +21°C° 0 mm 2 mps 711 mmHg 75%
    09:00 +24°C° 0 mm 2 mps 711 mmHg 67%
    10:00 +25°C° 0 mm 3 mps 711 mmHg 60%
    11:00 +26°C° 0 mm 3 mps 711 mmHg 53%
    12:00 +27°C° 0 mm 3 mps 711 mmHg 49%
    13:00 +28°C° 0 mm 3 mps 711 mmHg 45%
    14:00 +28°C° 0 mm 2 mps 711 mmHg 41%
    15:00 +29°C° 0 mm 2 mps 711 mmHg 41%
    16:00 +29°C° 0 mm 2 mps 711 mmHg 41%
    17:00 +28°C° 0 mm 2 mps 712 mmHg 43%
    18:00 +27°C° 0 mm 3 mps 711 mmHg 50%
    19:00 +25°C° 0 mm 3 mps 711 mmHg 56%
    20:00 +24°C° 0 mm 3 mps 711 mmHg 63%
    21:00 +22°C° 0 mm 3 mps 711 mmHg 63%
    22:00 +21°C° 0 mm 4 mps 710 mmHg 64%
    23:00 +21°C° 0 mm 4 mps 710 mmHg 64%

    Tomorrow, 26 June, Wednesday

    Time Temperature Precipitation Wind Pressure Humidity
    00:00 +20°C° 0 mm 4 mps 710 mmHg 65%
    01:00 +20°C° 0 mm 4 mps 709 mmHg 67%
    02:00 +19°C° 0 mm 4 mps 709 mmHg 68%
    03:00 +19°C° 0 mm 4 mps 709 mmHg 68%
    04:00 +19°C° 0 mm 4 mps 708 mmHg 68%
    05:00 +19°C° 0 mm 3 mps 708 mmHg 67%
    06:00 +21°C° 0 mm 4 mps 708 mmHg 61%
    07:00 +25°C° 0 mm 5 mps 708 mmHg 55%
    08:00 +27°C° 0 mm 6 mps 708 mmHg 49%
    09:00 +29°C° 0 mm 6 mps 708 mmHg 44%
    10:00 +32°C° 0 mm 6 mps 708 mmHg 39%
    11:00 +33°C° 0 mm 6 mps 708 mmHg 33%
    12:00 +34°C° 0 mm 6 mps 708 mmHg 30%
    13:00 +35°C° 0 mm 5 mps 708 mmHg 27%
    14:00 +36°C° 0 mm 5 mps 707 mmHg 24%
    15:00 +35°C° 0 mm 4 mps 707 mmHg 28%
    16:00 +34°C° 0 mm 3 mps 707 mmHg 32%
    17:00 +32°C° 0 mm 2 mps 707 mmHg 36%
    18:00 +29°C° 0.6 mm 5 mps 706 mmHg 48%
    19:00 +24°C° 0.6 mm 8 mps 706 mmHg 61%
    20:00 +21°C° 0.6 mm 10 mps 706 mmHg 73%
    21:00 +20°C° 0.1 mm 8 mps 706 mmHg 73%
    22:00 +20°C° 0.1 mm 7 mps 706 mmHg 72%
    23:00 +19°C° 0.1 mm 5 mps 706 mmHg 72%

    Day after tomorrow, 27 June, Thursday

    Time Temperature Precipitation Wind Pressure Humidity
    00:00 +19°C° 0 mm 4 mps 705 mmHg 74%
    01:00 +19°C° 0 mm 3 mps 705 mmHg 75%
    02:00 +19°C° 0 mm 3 mps 705 mmHg 77%
    03:00 +19°C° 0 mm 2 mps 705 mmHg 77%
    04:00 +19°C° 0 mm 2 mps 705 mmHg 77%
    05:00 +20°C° 0 mm 1 mps 705 mmHg 77%
    06:00 +22°C° 0 mm 1 mps 705 mmHg 69%
    07:00 +24°C° 0 mm 1 mps 705 mmHg 62%
    08:00 +25°C° 0 mm 1 mps 705 mmHg 54%
    09:00 +27°C° 0 mm 2 mps 705 mmHg 49%
    10:00 +29°C° 0 mm 2 mps 705 mmHg 43%
    11:00 +30°C° 0 mm 2 mps 705 mmHg 37%
    12:00 +31°C° 0 mm 3 mps 705 mmHg 35%
    13:00 +33°C° 0 mm 4 mps 705 mmHg 33%
    14:00 +34°C° 0 mm 5 mps 705 mmHg 31%
    15:00 +33°C° 0 mm 5 mps 705 mmHg 35%
    16:00 +32°C° 0 mm 5 mps 705 mmHg 40%
    17:00 +32°C° 0 mm 5 mps 705 mmHg 45%
    18:00 +28°C° 0.7 mm 5 mps 705 mmHg 56%
    19:00 +25°C° 0.7 mm 5 mps 704 mmHg 66%
    20:00 +22°C° 0.7 mm 5 mps 704 mmHg 77%
    21:00 +21°C° 0.2 mm 5 mps 704 mmHg 80%
    22:00 +19°C° 0.2 mm 5 mps 704 mmHg 83%
    23:00 +17°C° 0.2 mm 5 mps 704 mmHg 86%

    28 June, Friday

    Time Temperature Precipitation Wind Pressure Humidity
    00:00 +17°C° 0 mm 6 mps 704 mmHg 86%
    01:00 +17°C° 0 mm 6 mps 704 mmHg 85%
    02:00 +16°C° 0 mm 7 mps 704 mmHg 85%
    03:00 +17°C° 0.1 mm 5 mps 704 mmHg 83%
    04:00 +18°C° 0.1 mm 4 mps 704 mmHg 81%
    05:00 +18°C° 0.1 mm 2 mps 704 mmHg 79%
    06:00 +19°C° 0 mm 3 mps 704 mmHg 76%
    07:00 +20°C° 0 mm 3 mps 704 mmHg 73%
    08:00 +22°C° 0 mm 4 mps 704 mmHg 69%
    09:00 +25°C° 0 mm 5 mps 704 mmHg 62%
    10:00 +27°C° 0 mm 5 mps 704 mmHg 55%
    11:00 +29°C° 0 mm 6 mps 704 mmHg 47%
    12:00 +30°C° 0 mm 5 mps 703 mmHg 42%
    13:00 +32°C° 0 mm 5 mps 703 mmHg 37%
    14:00 +34°C° 0 mm 4 mps 703 mmHg 32%
    15:00 +33°C° 0 mm 5 mps 703 mmHg 34%
    16:00 +33°C° 0 mm 6 mps 703 mmHg 36%
    17:00 +32°C° 0 mm 6 mps 703 mmHg 38%
    18:00 +29°C° 0 mm 7 mps 702 mmHg 45%
    19:00 +27°C° 0 mm 7 mps 702 mmHg 52%
    20:00 +24°C° 0 mm 8 mps 702 mmHg 58%
    21:00 +24°C° 0 mm 7 mps 702 mmHg 54%
    22:00 +25°C° 0 mm 5 mps 702 mmHg 50%
    23:00 +25°C° 0 mm 4 mps 702 mmHg 46%

    29 June, Saturday

    Time Temperature Precipitation Wind Pressure Humidity
    00:00 +22°C° 0 mm 4 mps 702 mmHg 55%
    01:00 +21°C° 0 mm 3 mps 702 mmHg 65%
    02:00 +19°C° 0 mm 3 mps 702 mmHg 74%
    03:00 +18°C° 0 mm 4 mps 702 mmHg 80%
    04:00 +16°C° 0 mm 5 mps 702 mmHg 87%
    05:00 +15°C° 0 mm 6 mps 703 mmHg 94%
    06:00 +16°C° 0 mm 6 mps 703 mmHg 90%
    07:00 +16°C° 0 mm 6 mps 704 mmHg 87%
    08:00 +16°C° 0 mm 6 mps 704 mmHg 83%
    09:00 +17°C° 0 mm 7 mps 704 mmHg 80%
    10:00 +17°C° 0 mm 7 mps 705 mmHg 77%
    11:00 +18°C° 0 mm 7 mps 705 mmHg 74%
    12:00 +18°C° 0 mm 8 mps 705 mmHg 73%
    13:00 +18°C° 0 mm 8 mps 706 mmHg 72%
    14:00 +18°C° 0 mm 9 mps 706 mmHg 70%
    15:00 +18°C° 0 mm 9 mps 706 mmHg 68%
    16:00 +18°C° 0 mm 9 mps 707 mmHg 65%
    17:00 +18°C° 0 mm 9 mps 707 mmHg 62%
    18:00 +17°C° 0 mm 8 mps 708 mmHg 66%
    19:00 +16°C° 0 mm 7 mps 708 mmHg 70%
    20:00 +15°C° 0 mm 6 mps 708 mmHg 73%
    21:00 +14°C° 0 mm 7 mps 708 mmHg 73%
    22:00 +12°C° 0 mm 7 mps 709 mmHg 73%
    23:00 +12°C° 0 mm 7 mps 709 mmHg 72%

    30 June, Sunday

    Time Temperature Precipitation Wind Pressure Humidity
    00:00 +11°C° 0 mm 7 mps 709 mmHg 72%
    01:00 +10°C° 0 mm 7 mps 709 mmHg 72%
    02:00 +10°C° 0 mm 7 mps 709 mmHg 72%
    03:00 +9°C° 0 mm 7 mps 709 mmHg 72%
    04:00 +9°C° 0 mm 7 mps 709 mmHg 73%
    05:00 +8°C° 0 mm 7 mps 709 mmHg 74%
    06:00 +10°C° 0 mm 7 mps 709 mmHg 66%
    07:00 +11°C° 0 mm 8 mps 709 mmHg 59%
    08:00 +13°C° 0 mm 8 mps 709 mmHg 52%
    09:00 +15°C° 0 mm 8 mps 709 mmHg 50%
    10:00 +16°C° 0 mm 8 mps 709 mmHg 47%
    11:00 +18°C° 0 mm 7 mps 709 mmHg 45%
    12:00 +20°C° 0 mm 7 mps 709 mmHg 42%
    13:00 +21°C° 0 mm 7 mps 709 mmHg 40%
    14:00 +22°C° 0 mm 6 mps 708 mmHg 37%
    15:00 +22°C° 0 mm 6 mps 708 mmHg 38%
    16:00 +22°C° 0 mm 6 mps 708 mmHg 38%
    17:00 +22°C° 0 mm 6 mps 708 mmHg 39%
    18:00 +20°C° 0 mm 5 mps 708 mmHg 44%
    19:00 +18°C° 0 mm 4 mps 708 mmHg 50%
    20:00 +17°C° 0 mm 3 mps 708 mmHg 56%
    21:00 +16°C° 0 mm 3 mps 708 mmHg 58%
    22:00 +14°C° 0 mm 3 mps 708 mmHg 60%
    23:00 +13°C° 0 mm 3 mps 708 mmHg 62%
    Show more